Location: 22
(39.7117°N, 89.5929°W)
Time: 09:51:39
(UTC-05:00)

Transit 2A Rocket - Visible Passes

Search period start: 23 June 2025 00:00
Search period end: 03 July 2025 00:00
Orbit: 590 x 896 km, 66.7° (Epoch: 22 June)

Date Brightness Start Highest point End Pass type
(mag) Time Alt. Az. Time Alt. Az. Time Alt. Az.
23 Jun 6.1 02:39:57 22° ESE 02:40:32 22° ESE 02:43:53 10° ENE visible
23 Jun 5.6 04:19:41 15° WSW 04:22:40 32° NW 04:26:34 10° N visible
24 Jun 7.1 01:56:00 10° E 01:56:00 10° E 01:56:29 10° E visible
24 Jun 4.6 03:35:43 35° SW 03:37:22 63° WNW 03:41:41 10° NNE visible
25 Jun 4.6 02:51:44 56° SSE 02:52:13 61° ESE 02:56:30 10° NE visible
25 Jun 6.7 04:32:34 10° W 04:35:00 15° NW 04:37:29 10° N visible
26 Jun 5.9 02:07:42 28° E 02:07:42 28° E 02:10:55 10° NE visible
26 Jun 6.0 03:47:25 18° W 03:49:30 26° NW 03:53:10 10° N visible
27 Jun 7.0 01:23:38 12° E 01:23:38 12° E 01:24:30 10° ENE visible
27 Jun 4.9 03:03:21 43° W 03:04:09 49° WNW 03:08:23 10° NNE visible
28 Jun 4.5 02:19:15 74° ENE 02:19:15 74° ENE 02:23:18 10° NNE visible
28 Jun 6.9 04:00:09 10° WNW 04:01:55 12° NW 04:03:42 10° NNW visible
29 Jun 5.9 01:35:06 30° ENE 01:35:06 30° ENE 01:37:53 10° NE visible
29 Jun 6.3 03:14:49 18° WNW 03:16:21 21° NW 03:19:44 10° N visible
30 Jun 6.9 00:50:56 13° ENE 00:50:56 13° ENE 00:51:51 10° ENE visible
30 Jun 5.3 02:30:38 38° WNW 02:30:57 39° NW 02:35:04 10° NNE visible
01 Jul 4.9 01:46:25 60° NNE 01:46:25 60° NNE 01:50:04 10° NNE visible
01 Jul 7.2 03:28:29 10° NW 03:28:50 10° NW 03:29:12 10° NW visible
02 Jul 5.9 01:02:10 31° ENE 01:02:10 31° ENE 01:04:46 10° NE visible
02 Jul 6.6 02:41:52 16° WNW 02:43:13 18° NW 02:46:13 10° N visible
